Location: Newark
(46.1500°N, 9.2833°E)
Time: 09:07:00
(UTC+00:00)

Tiangong 2 - Visible Passes

Search period start: 17 July 2019 00:00
Search period end: 27 July 2019 00:00
Orbit: 378 x 386 km, 42.8° (Epoch: 17 July)

Date Brightness Start Highest point End Pass type
(mag) Time Alt. Az. Time Alt. Az. Time Alt. Az.
17 Jul 2.7 21:14:57 10° WSW 21:16:58 21° SW 21:16:58 21° SW visible
18 Jul 2.1 20:14:29 10° W 20:17:16 30° SSW 20:19:09 16° SE visible
19 Jul 3.1 20:51:16 10° WSW 20:53:14 16° SSW 20:53:28 15° SSW visible
20 Jul 2.7 19:50:34 10° WSW 19:53:05 23° SSW 19:55:38 10° SSE visible
21 Jul 3.6 20:28:30 10° SW 20:28:58 10° SSW 20:29:25 10° SSW visible
